C/2020 P3 ( ATLAS )

Japanese version
Home page
Updated on June 1, 2021

---------------------------------------------------------------------

* Profile

Discovery Date August 9, 2020
Magnitude 19.0 mag
Discoverer Asteroid Terrestrial-Impact Last Alert System (ATLAS) search program

* Pictures

* Orbital Elements

Epoch 2021 Apr. 16.0 TT = JDT 2459320.5
T 2021 Apr. 20.87849 TT                                 Rudenko
q   6.8123341            (2000.0)            P               Q
z  +0.0001559      Peri.   82.24738     -0.02860995     -0.95529885
 +/-0.0000013      Node    19.48862     +0.09751343     -0.29563803
e   0.9989376      Incl.   61.88522     +0.99482290     +0.00150542
From 378 observations 2020 Aug. 9-2021 May 24, mean residual 0".5.

* Magnitudes Graph

        m1 = 5.5 + 5 log d + 10.0 log r

---------------------------------------------------------------------

The orbital elements are published on M.P.E.C. 2021-L04.
The magnitudes graphs are made with Comet for Windows.

---------------------------------------------------------------------

Copyright(C) Seiichi Yoshida (comet@aerith.net). All rights reserved.